Weather in Kendelen

Russia / The Kabardino-Balkar Republic     43°35′38″N   43°10′32″E
temp.,
°C
wind,
m/s
gust,
m/s
humid.,
%
clouds,
%
prec.,
mm/h
press.,
hPa
HPBL,
m
19 september, sun
sun1900:00+9ssw2278100 0.0 101623
03:00+9sw33610 0.0 101639
06:00+9sw445717 0.0 101642
09:00+16ene2143100 0.0 1014364
12:00+18ene324863 0.0 1013804
15:00+17ene326298 0.0 1013867
18:00+12sse1193100 1.0 101412
21:00+11sw338152 1.1 101540
20 september, mon
mon2000:00+10sw44786 0.0 101548
03:00+10sw337353 0.0 101535
06:00+10sw446947 0.0 101550
09:00+16ne21545 0.0 1014477
12:00+19ne325214 0.1 10131145
15:00+16ne337174 1.3 1014728
18:00+12nnw119187 3.3 101612
21:00+12ssw229059 4.7 101835
21 september, tue
tue2100:00+10ssw32880 0.0 101829
03:00+8sw44790 0.0 101842
06:00+8sw44695 0.0 101743
09:00+16e115397 0.0 1015443
12:00+19ene325257 0.0 10131168
15:00+19ene325840 0.0 10131162
18:00+13sse119058 1.4 101411
21:00+11sw328844 3.1 101630
22 september, wed
wed2200:00+10sw338198 0.0 101538
03:00+10wsw1177100 0.1 101411
06:00+9e1190100 0.0 101511
09:00+11ne2294100 0.1 1015315
12:00+11ne2295100 0.8 1015461
15:00+11ne2299100 3.4 1015267
18:00+10ene22100100 0.9 1015115
21:00+10ene2298100 1.6 1015144
23 september, thu
thu2300:00+9ene11100100 0.1 101487
03:00+9ese1199100 0.2 101482
06:00+9ese119698 0.1 101396
09:00+10ene229065 0.1 1012395
12:00+10e229599 0.1 1011309
15:00+10e2296100 0.2 1009254
18:00+10ese2299100 0.1 1010167
21:00+10ssw2391100 0.8 100748